[[{"header":{"parameterUnit":"m.s-1","parameterCategory":1,"la1":30.2991,"la2":30.254,"lo1":-89.0895,"lo2":-89.0444,"dy":0.0017,"dx":0.0017,"nx":28,"ny":28,"refTime":"2023-07-29T21:00:00:Z","depth":0,"parameterNumber":2,"parameterNumberName":"U-component_of_WINDS"},"data":[0,0,0,0,0,0,0,0,0,0,0,0,0,0,0,0,0,0,0,0,0,0,0,0,0,0,0,0,0,0,0,0,0,0,0,0,0,0,0,0,0,0,0,0,0,0,0,0,0,0,0,0,0,0,0,0,0,0,2.027,2.0271,0,2.0403,2.0404,2.0406,2.0424,2.0423,2.0422,2.042,2.0553,2.0558,2.0562,0,0,0,0,0,0,0,0,0,0,0,0,0,2.0029,2.0033,2.027,2.0271,2.0273,2.0402,2.0404,2.0406,2.0424,2.0423,2.0421,2.042,2.0551,2.0557,2.0563,0,0,0,0,0,0,0,0,0,0,0,0,0,2.0145,2.0035,2.027,2.0298,2.0302,2.0402,2.0404,2.0406,2.0425,2.0423,2.0421,2.0419,2.055,2.0556,2.0563,2.0643,0,0,2.0585,2.0588,0,0,0,0,0,0,0,0,2.0138,2.0154,2.0292,2.0296,2.0301,2.0395,2.0368,2.0486,2.0425,2.0378,2.042,2.0418,2.0502,2.0512,2.0541,2.065,2.0655,2.0585,2.059,2.0593,2.0595,0,0,0,0,0,0,0,2.013,2.0148,2.0322,2.0294,2.0299,2.0303,2.0317,2.039,2.0448,2.0382,2.0383,2.0399,2.0504,2.0535,2.0545,2.0657,2.0585,2.0591,2.0596,2.0598,2.0837,2.0839,0,0,0,0,0,0,2.0117,2.0141,2.0318,2.0326,2.0213,2.0309,2.0325,2.0366,2.0448,2.0458,2.0401,2.0399,2.0523,2.0536,2.0549,2.0647,2.0593,2.0599,2.0603,2.0835,2.0838,2.084,0,0,0,0,0,0,2.0112,2.0133,2.0313,2.0234,2.0257,2.0315,2.0361,2.037,2.0401,2.0462,2.0472,2.0422,2.0523,2.0539,2.062,2.0652,2.0602,2.0609,2.0832,2.0836,2.0839,2.0845,0,0,0,0,0,0,2.0105,2.0131,2.0163,2.0235,2.0262,2.0382,2.0364,2.0374,2.0413,2.0413,2.0484,2.0494,2.0522,2.0609,2.0627,2.0661,2.0614,2.083,2.0834,2.0838,2.0842,2.0848,2.0853,0,0,0,0,0,2.0097,2.0158,2.0164,2.0185,2.0302,2.0384,2.0399,2.0431,2.0416,2.0448,2.0487,2.0492,2.0646,2.0617,2.0637,2.0674,2.0828,2.0833,2.0837,2.0839,2.0846,2.0852,0,0,0,0,0,0,2.0087,2.0168,2.0176,2.0263,2.0316,2.0387,2.0427,2.0438,2.0495,2.0493,2.0529,2.0545,2.0623,2.0657,2.0623,2.0755,2.0736,2.0745,2.073,2.0738,2.0743,2.0732,2.062,0,0,0,0,0,2.0095,2.0156,2.0223,2.0294,2.032,2.0369,2.0406,2.0426,2.0483,2.0505,2.055,2.0603,2.0664,2.0703,2.0762,2.0847,2.0862,2.0883,2.0888,2.0892,2.0899,2.0945,2.0955,2.0856,2.0856,2.0855,0,0,2.0112,2.0164,2.02,2.0293,2.0337,2.0397,2.0388,2.0452,2.0497,2.0514,2.0593,2.0628,2.069,2.0773,2.0812,2.0804,2.093,2.0898,2.0901,2.0906,2.0951,2.096,2.0969,2.0859,2.0858,2.0858,0,0,2.0174,2.022,2.0284,2.0328,2.0395,2.0428,2.0443,2.0512,2.0536,2.0617,2.063,2.0684,2.0788,2.0831,2.0867,2.0947,2.0953,2.0965,2.0992,2.1037,2.1045,2.1052,2.1079,2.1088,2.0972,2.0972,2.0972,0,2.0186,2.0279,2.0315,2.0379,2.0419,2.0439,2.0502,2.0544,2.0626,2.0652,2.0643,2.0773,2.0817,2.091,2.0929,2.0958,2.0975,2.0956,2.1041,2.1049,2.1056,2.1082,2.1092,2.0973,2.0973,2.0973,2.0972,0,2.029,2.0354,2.0397,2.0477,2.0523,2.0586,2.063,2.0672,2.0688,2.0722,2.0802,2.0855,2.0925,2.0949,2.0966,2.1045,2.1037,2.1034,2.1014,2.1066,2.109,2.1101,2.0974,2.0974,2.0973,2.0973,0,0,2.0347,2.0448,2.0462,2.0499,2.0575,2.0625,2.0689,2.0759,2.0793,2.0849,2.0903,2.0991,2.0989,2.1029,2.1051,2.1091,2.1149,2.1083,2.1085,2.1092,2.1237,2.1238,2.1249,2.1155,2.1157,2.1159,2.1231,0,2.0416,2.0532,2.0567,2.0664,2.0723,2.0743,2.0799,2.0851,2.0884,2.0938,2.0975,2.1036,2.1029,2.1054,2.1094,2.1133,2.1178,2.1129,2.1203,2.1206,2.1185,2.1262,2.1263,2.1329,2.1242,2.1243,2.1245,0,2.0512,2.0571,2.0674,2.0743,2.0769,2.0819,2.0885,2.0937,2.0997,2.1018,2.1064,2.1083,2.115,2.1128,2.122,2.1186,2.1218,2.1242,2.1246,2.1252,2.1226,2.1268,2.1351,2.136,2.1261,2.1259,2.1258,0,2.054,2.0647,2.0722,2.0753,2.0835,2.087,2.0905,2.0963,2.1003,2.1061,2.1087,2.1152,2.1187,2.1236,2.1271,2.1253,2.136,2.1342,2.1378,2.1377,2.1397,2.1395,2.1484,2.1422,2.1422,2.1422,2.1422,0,2.0612,2.0674,2.0736,2.0782,2.0852,2.0891,2.0958,2.0995,2.1047,2.1099,2.1122,2.117,2.1215,2.127,2.1298,2.1369,2.1385,2.1403,2.1409,2.14,2.1397,2.142,2.1416,2.1424,2.1424,2.1423,2.1423,0,2.0655,2.07,2.0783,2.0855,2.0874,2.0922,2.0983,2.1028,2.1063,2.113,2.1147,2.1201,2.1267,2.1308,2.1391,2.141,2.1487,2.1493,2.1467,2.147,2.1503,2.1498,2.1608,2.1624,2.1553,2.1553,2.1554,0,2.0697,2.0746,2.0823,2.0861,2.0897,2.0957,2.0999,2.1039,2.1081,2.1153,2.1189,2.1256,2.1311,2.1415,2.1461,2.1524,2.153,2.1565,2.154,2.1529,2.1529,2.1525,2.1529,2.1568,2.1568,2.1569,2.1569,0,2.0766,2.0786,2.0845,2.0912,2.0961,2.1015,2.1069,2.1098,2.1148,2.1194,2.1261,2.1305,2.139,2.1456,2.1524,2.156,2.1572,2.1577,2.1589,2.1578,2.156,2.1569,2.1476,2.1574,2.1573,2.1573,2.1573,2.1573,2.0809,2.0852,2.0914,2.0979,2.1025,2.1075,2.1121,2.1162,2.122,2.1293,2.1313,2.1384,2.1442,2.1535,2.1572,2.1627,2.1622,2.1639,2.1643,2.1646,2.1646,2.1554,2.164,2.164,2.164,2.164,2.164,0,2.0877,2.0919,2.0978,2.1054,2.1105,2.1115,2.1175,2.1217,2.1279,2.1333,2.1388,2.1466,2.153,2.1582,2.1648,2.1682,2.1689,2.1698,2.1694,2.1702,2.1647,2.163,2.169,2.169,2.169,2.169,2.169,2.169,2.0919,2.0993,2.102,2.1117,2.1158,2.1228,2.1262,2.1308,2.1351,2.1437,2.1491,2.1525,2.1578,2.1649,2.1708,2.1721,2.1744,2.175,2.1765,2.1712,2.1706,2.1701,2.1684,2.1755,2.1756,2.1815,2.1815,2.1816]},{"header":{"parameterUnit":"m.s-1","parameterCategory":1,"la1":30.2991,"la2":30.254,"lo1":-89.0895,"lo2":-89.0444,"dy":0.0017,"dx":0.0017,"nx":28,"ny":28,"refTime":"2023-07-29T21:00:00:Z","depth":0,"parameterNumber":3,"parameterNumberName":"V-component_of_WINDS"},"data":[0,0,0,0,0,0,0,0,0,0,0,0,0,0,0,0,0,0,0,0,0,0,0,0,0,0,0,0,0,0,0,0,0,0,0,0,0,0,0,0,0,0,0,0,0,0,0,0,0,0,0,0,0,0,0,0,0,0,4.3682,4.3683,0,4.3736,4.3736,4.3737,4.371,4.3708,4.3707,4.3706,4.3753,4.3755,4.3758,0,0,0,0,0,0,0,0,0,0,0,0,0,4.3552,4.3555,4.3682,4.3683,4.3684,4.3735,4.3736,4.3737,4.371,4.3708,4.3707,4.3705,4.3752,4.3755,4.3758,0,0,0,0,0,0,0,0,0,0,0,0,0,4.3607,4.3555,4.3682,4.3677,4.3677,4.3735,4.3736,4.3737,4.371,4.3708,4.3706,4.3704,4.3751,4.3755,4.3759,4.3823,0,0,4.377,4.3772,0,0,0,0,0,0,0,0,4.3604,4.3612,4.3677,4.3677,4.3677,4.3714,4.3707,4.3766,4.3711,4.3697,4.3706,4.3703,4.3741,4.3746,4.376,4.3826,4.3828,4.377,4.3773,4.3774,4.3775,0,0,0,0,0,0,0,4.36,4.3609,4.3703,4.3678,4.3678,4.367,4.3675,4.3718,4.373,4.3698,4.3697,4.3704,4.3741,4.3756,4.3761,4.3828,4.377,4.3774,4.3776,4.3778,4.3952,4.3954,0,0,0,0,0,0,4.3597,4.3606,4.3701,4.3705,4.3635,4.3674,4.368,4.3704,4.3729,4.3731,4.3705,4.3702,4.3751,4.3756,4.3762,4.3841,4.3774,4.3778,4.378,4.3949,4.3952,4.3955,0,0,0,0,0,0,4.3595,4.3606,4.3699,4.3655,4.3666,4.3678,4.3706,4.3706,4.3722,4.3735,4.3736,4.3719,4.3749,4.3757,4.3809,4.3842,4.378,4.3783,4.3947,4.395,4.3953,4.3999,0,0,0,0,0,0,4.3591,4.3605,4.3631,4.3656,4.3669,4.3747,4.3708,4.3709,4.3729,4.3726,4.3748,4.375,4.3748,4.3804,4.3813,4.3846,4.3786,4.3944,4.3948,4.3952,4.3994,4.4003,4.4011,0,0,0,0,0,4.3587,4.3639,4.3633,4.3644,4.3702,4.3749,4.3756,4.3755,4.3732,4.3757,4.3766,4.3749,4.3838,4.3809,4.382,4.3855,4.3941,4.3947,4.3952,4.399,4.4001,4.4011,0,0,0,0,0,0,4.3614,4.3642,4.3635,4.3698,4.3722,4.3744,4.3776,4.3766,4.3795,4.379,4.3786,4.3791,4.3846,4.3855,4.3823,4.392,4.3886,4.3893,4.3911,4.3922,4.393,4.3926,4.3789,0,0,0,0,0,4.3629,4.3667,4.3688,4.3742,4.3754,4.3764,4.3784,4.3782,4.3805,4.3814,4.3826,4.3848,4.388,4.3902,4.3932,4.3996,4.4001,4.4025,4.4034,4.404,4.4047,4.4082,4.4094,4.3972,4.3972,4.3972,0,0,4.3656,4.3677,4.37,4.3748,4.3766,4.3804,4.3772,4.3813,4.3841,4.3819,4.3871,4.3881,4.3904,4.3963,4.3989,4.3973,4.4082,4.4047,4.4052,4.4055,4.4089,4.4101,4.4111,4.3976,4.3975,4.3974,0,0,4.3728,4.3747,4.3795,4.3815,4.3844,4.385,4.3862,4.3887,4.3894,4.3946,4.3932,4.3964,4.402,4.4038,4.4055,4.4137,4.4123,4.4147,4.419,4.4225,4.4235,4.4243,4.4273,4.4284,4.4153,4.4153,4.4153,0,4.3758,4.3817,4.3819,4.3864,4.3885,4.3871,4.3919,4.3937,4.3974,4.3988,4.397,4.4042,4.4057,4.4121,4.4141,4.4155,4.4167,4.4144,4.4234,4.4242,4.425,4.4279,4.429,4.4156,4.4156,4.4155,4.4155,0,4.3854,4.3896,4.393,4.397,4.3996,4.4041,4.4049,4.4074,4.4071,4.4079,4.4132,4.415,4.4185,4.42,4.4195,4.4264,4.4253,4.4234,4.42,4.4265,4.4291,4.4302,4.416,4.4159,4.4158,4.4158,0,0,4.3941,4.3985,4.3998,4.4017,4.405,4.4081,4.4126,4.4164,4.4186,4.4212,4.425,4.4299,4.4283,4.4302,4.43,4.433,4.4396,4.4308,4.4308,4.4324,4.4474,4.4488,4.4501,4.4387,4.4389,4.4391,4.4472,0,4.4015,4.4097,4.4102,4.4176,4.4215,4.4204,4.4243,4.4267,4.4276,4.4309,4.4318,4.4354,4.433,4.4342,4.4372,4.4382,4.4426,4.4376,4.4421,4.4423,4.4416,4.4514,4.4529,4.4604,4.4482,4.4484,4.4485,0,4.4111,4.4145,4.4224,4.4255,4.4271,4.4307,4.4343,4.4375,4.4402,4.4407,4.443,4.4424,4.447,4.4435,4.4497,4.4463,4.4482,4.449,4.4493,4.4497,4.4458,4.4521,4.4628,4.464,4.4502,4.45,4.4499,0,4.4168,4.4233,4.4289,4.4306,4.4343,4.4369,4.4384,4.441,4.4433,4.4464,4.4479,4.4514,4.4533,4.4559,4.4562,4.4537,4.4625,4.459,4.463,4.463,4.4648,4.4647,4.476,4.466,4.466,4.466,4.466,0,4.425,4.4298,4.4316,4.435,4.4405,4.441,4.4463,4.4477,4.4501,4.4537,4.4528,4.4562,4.4564,4.4599,4.4601,4.4653,4.4661,4.4665,4.4666,4.4667,4.4666,4.4678,4.4673,4.4663,4.4662,4.4662,4.4661,0,4.4321,4.4335,4.4396,4.4428,4.4437,4.4476,4.4502,4.4535,4.4545,4.4591,4.4602,4.4617,4.4657,4.4664,4.4709,4.4712,4.4774,4.4768,4.4766,4.4765,4.4805,4.4801,4.493,4.4947,4.4836,4.4837,4.4837,0,4.4372,4.4411,4.4448,4.4474,4.4493,4.4533,4.4558,4.4565,4.4591,4.4627,4.4655,4.4696,4.4728,4.4793,4.4806,4.4842,4.4837,4.488,4.4842,4.4843,4.4839,4.4837,4.4841,4.4887,4.4888,4.4889,4.489,0,4.4462,4.4468,4.4507,4.4549,4.458,4.4612,4.4642,4.4663,4.4674,4.4703,4.4747,4.4772,4.4822,4.4862,4.4898,4.4912,4.4903,4.4902,4.4913,4.4914,4.4912,4.4915,4.4786,4.4899,4.4898,4.4897,4.4897,4.4896,4.4525,4.456,4.4593,4.4637,4.4662,4.4691,4.4725,4.4741,4.4778,4.4822,4.4823,4.487,4.4898,4.4946,4.4964,4.5,4.4986,4.5001,4.5006,4.501,4.5014,4.4907,4.5006,4.5006,4.5006,4.5005,4.5005,0,4.4615,4.4638,4.4678,4.4724,4.4758,4.475,4.4784,4.4813,4.4856,4.4884,4.4918,4.4969,4.5008,4.5027,4.5066,4.5091,4.5088,4.5101,4.5099,4.5103,4.5024,4.5011,4.5103,4.5103,4.5103,4.5103,4.5103,4.5103,4.4666,4.4725,4.4736,4.4807,4.4828,4.4878,4.4898,4.4925,4.4949,4.5007,4.5041,4.5054,4.5079,4.512,4.5156,4.516,4.5175,4.5191,4.5193,4.5118,4.5108,4.5099,4.5087,4.5194,4.5194,4.5269,4.527,4.527]}]]